EW4115 Weather Reports


Display with metric or nautical units.
time (UTC)temp
F
wind
direction
speed
MPH
gust
MPH
rain 1hr
in
rain 24hr
in
rain mn
in
humidity
%
barometer
mb
20260505003057 51 237 0.0 0.0 0.00 0.00 0.00 83 1016.8
20260505001555 51 237 0.0 0.0 0.00 0.00 0.00 83 1016.9
20260505000056 52 237 0.0 0.0 0.00 0.00 0.00 81 1017.0
20260504234551 52 237 0.0 0.0 0.00 0.00 0.00 81 1017.2
20260504233149 52 237 0.0 0.0 0.00 0.00 0.00 80 1017.4
20260504231548 52 237 0.0 0.0 0.00 0.00 0.00 79 1017.3
20260504230046 52 237 0.0 0.0 0.00 0.00 0.00 79 1017.5
20260504224543 53 237 0.0 0.0 0.00 0.00 0.00 79 1017.7
20260504223046 53 237 0.0 0.0 0.00 0.00 0.00 78 1017.8
20260504221547 53 237 0.0 0.0 0.00 0.00 0.00 78 1017.8
20260504220056 53 237 0.0 0.0 0.00 0.00 0.00 77 1018.0
20260504214539 54 237 0.0 0.0 0.00 0.00 0.00 75 1017.9
20260504213036 54 237 0.0 0.0 0.00 0.00 0.00 75 1017.9
20260504211534 54 237 0.0 0.0 0.00 0.00 0.00 73 1017.9
20260504210031 55 237 0.0 0.0 0.00 0.00 0.00 71 1017.9
20260504204546 55 237 0.0 0.0 0.00 0.00 0.00 71 1017.9
20260504203032 55 237 0.0 0.0 0.00 0.00 0.00 70 1018.0
20260504201529 56 237 0.0 0.0 0.00 0.00 0.00 69 1018.1
20260504200029 56 237 0.0 0.0 0.00 0.00 0.00 68 1018.2
20260504194536 56 237 0.0 0.0 0.00 0.00 0.00 68 1018.2
20260504193028 57 237 0.0 1.0 0.00 0.00 0.00 67 1018.0
20260504191527 57 237 0.0 1.0 0.00 0.00 0.00 66 1018.0
20260504190033 58 237 0.0 0.0 0.00 0.00 0.00 65 1017.9
20260504184533 58 237 0.0 1.0 0.00 0.00 0.00 63 1017.7
20260504183025 59 237 0.0 1.0 0.00 0.00 0.00 61 1017.7
20260504181525 60 237 0.0 1.0 0.00 0.00 0.00 59 1017.6
20260504180025 61 237 0.0 1.0 0.00 0.00 0.00 57 1017.4
20260504174525 62 252 0.0 1.0 0.00 0.00 0.00 52 1017.4
20260504173025 62 252 0.0 1.0 0.00 0.00 0.00 49 1017.4
20260504171523 63 254 0.0 3.0 0.00 0.00 0.00 49 1017.2
20260504081610 62 272 2.0 7.0 0.00 0.00 0.00 44 1019.4
20260504044523 50 269 0.0 0.0 0.00 0.06 0.00 79 1018.6
20260504043034 48 269 0.0 1.0 0.00 0.06 0.00 82 1018.5
20260504041514 47 269 0.0 0.0 0.00 0.06 0.00 83 1018.5
20260504040012 46 269 0.0 1.0 0.00 0.06 0.00 82 1018.4
20260504034507 46 269 0.0 0.0 0.00 0.06 0.00 81 1018.2
20260504033006 46 269 0.0 0.0 0.00 0.06 0.00 80 1018.2
20260504031506 46 269 0.0 0.0 0.00 0.06 0.00 80 1018.3
20260504030013 46 269 0.0 1.0 0.00 0.06 0.00 79 1018.2
20260504024506 46 269 0.0 1.0 0.00 0.07 0.00 79 1018.2
20260504023002 46 269 0.0 1.0 0.00 0.07 0.00 78 1018.2
20260504021501 47 269 0.0 1.0 0.00 0.07 0.00 77 1018.3
20260504020139 47 269 0.0 0.0 0.00 0.07 0.00 76 1018.3
20260504014607 47 269 0.0 1.0 0.00 0.07 0.00 76 1018.3
20260504013117 47 269 0.0 0.0 0.00 0.07 0.00 75 1018.3
20260504011555 47 269 0.0 1.0 0.00 0.07 0.00 74 1018.4
20260504010054 48 269 0.0 1.0 0.00 0.07 0.00 73 1018.2
20260504004621 48 269 0.0 1.0 0.00 0.07 0.00 72 1018.2